Home > Weather > Germany > Verden (Aller) > Past weeks

Flag for Germany Weather past 2 weeks in Verden (Aller), Lower Saxony, Germany

45 °F

Passing clouds.

Feels Like: 40 °F
Forecast: 47 / 50 °F
Wind: 8 mph from South

Location: Bremen Airport

Current Time: Dec 1, 2015 at 9:08:36 PM

Latest Report: Dec 1, 2015 at 8:20 PM

Visibility: 2 mi

Pressure: 30.15 "Hg

Humidity: 93%

Dew point: 43 °F

Location of Verden (Aller)Location

Historic Weather in Verden (Aller) — Graph


Verden (Aller) temperature yesterday

Maximum temperature yesterday: 52 °F (at 9:50 PM)
Minimum temperature yesterday: 39 °F (at 3:50 PM)
Average temperature yesterday: 44 °F

Past Weeks' High & Low Weather Summary

High57 °F (Nov 17, 9:50 PM)100% (Nov 17, 2:20 AM)30.18 "Hg (Nov 17, 2:20 AM)
Low28 °F (Nov 22, 12:20 AM)57% (Nov 23, 1:20 PM)29.33 "Hg (Nov 21, 3:20 AM)
Average43 °F87%29.75 "Hg
* Reported Nov 16 7:20 PM — Dec 1 7:50 PM, Verden (Aller), Weather by CustomWeather, © 2015

Note: Actual official high and low records may vary slightly from our data, if they occured in-between our weather recording intervals... More about our weather records


Verden (Aller) weather history for previous 24 hours

Time TempWeatherWind HumidityBarometerVisibility
7:50 PM
Tue, Dec 1
45 °FPartly cloudy.7 mph93%30.15 "Hg5 mi
7:20 PM45 °FLight rain. Overcast.8 mph93%30.18 "HgN/A
6:50 PM45 °FLight rain. Overcast.6 mph93%30.18 "HgN/A
6:20 PM45 °FOvercast.7 mph87%30.18 "HgN/A
5:50 PM45 °FOvercast.7 mph87%30.18 "HgN/A
5:20 PM45 °FPassing clouds.6 mph87%30.18 "HgN/A
4:50 PM45 °FPassing clouds.7 mph87%30.18 "HgN/A
4:20 PM45 °FClear.6 mph87%30.18 "Hg10 mi
3:50 PM45 °FSunny.6 mph87%30.18 "Hg10 mi
3:20 PM45 °FSunny.8 mph87%30.18 "Hg10 mi
2:50 PM45 °FSunny.8 mph87%30.18 "Hg10 mi
2:20 PM46 °FPartly sunny.7 mph82%30.18 "HgN/A
1:50 PM46 °FPartly sunny.9 mph76%30.18 "HgN/A
1:20 PM46 °FSunny.10 mph76%30.18 "Hg10 mi
12:50 PM45 °FSunny.12 mph81%30.15 "Hg10 mi
12:20 PM45 °FSunny.12 mph81%30.15 "Hg10 mi
11:50 AM45 °FSunny.12 mph81%30.15 "Hg10 mi
11:20 AM45 °FSunny.10 mph81%30.15 "Hg10 mi
10:50 AM43 °FSunny.10 mph87%30.15 "Hg10 mi
10:20 AM43 °FScattered clouds.12 mph87%30.12 "HgN/A
9:50 AM43 °FScattered clouds.12 mph87%30.12 "HgN/A
7:50 AM43 °FLight rain. Passing clouds.10 mph87%30.07 "HgN/A
7:20 AM41 °FPassing clouds.12 mph93%30.07 "HgN/A
6:50 AM41 °FPartly cloudy.10 mph93%30.07 "HgN/A
5:50 AM43 °FPassing clouds.14 mph87%30.04 "HgN/A
5:20 AM41 °FPassing clouds.12 mph93%30.04 "HgN/A
4:50 AM43 °FPassing clouds.12 mph87%30.01 "HgN/A
4:20 AM43 °FPassing clouds.12 mph93%29.98 "HgN/A
3:50 AM43 °FPassing clouds.10 mph93%29.98 "HgN/A
3:20 AM41 °FPassing clouds.10 mph93%29.95 "HgN/A
2:50 AM41 °FPassing clouds.12 mph93%29.95 "HgN/A
2:20 AM41 °FPassing clouds.12 mph93%29.92 "HgN/A
1:50 AM43 °FPassing clouds.12 mph93%29.89 "HgN/A
12:50 AM41 °FPassing clouds.10 mph93%29.86 "HgN/A
12:20 AM43 °FPassing clouds.13 mph87%29.83 "HgN/A
11:50 PM
Mon, Nov 30
45 °FPassing clouds.14 mph87%29.77 "HgN/A
11:20 PM46 °FLight rain. Passing clouds.15 mph93%29.74 "HgN/A
10:50 PM46 °FLight rain. Passing clouds.17 mph100%29.71 "Hg3 mi
10:20 PM52 °FPassing clouds.21 mph94%29.65 "HgN/A
9:50 PM52 °FPassing clouds.21 mph94%29.65 "Hg4 mi
9:20 PM50 °FPassing clouds.17 mph94%29.62 "Hg3 mi
Weather by CustomWeather, © 2015

See weather overviewHow to use our weather pages